Location: Sternwarte Radebeul
(51.1160°N, 13.6224°E)
Time: 17:17:52
(UTC+01:00)

ISS - Pass Details

Date: 23 January 2020
Orbit: 415 x 422 km, 51.6° (Epoch: 26 February)

Event Time Altitude Azimuth Distance (km) Brightness Sun altitude
Rises 19:07:25 0° 238° (WSW) 2,373 1.1 -22.8°
Reaches altitude 10° 19:09:32 10° 234° (SW) 1,509 -0.2 -23.1°
Enters shadow 19:11:38 32° 215° (SW) 744 -2.2 -23.5°
